map of DEL home
Great Circle Mapper logo
DEL - Airport
Location
City:  New Delhi, India
Name:Indira Gandhi International Airport
Old (Alt.):Palam Airport
ICAO / IATA:VIDP / DEL

Details
Type:Airport (Aerodrome, Airfield)
Use:Public/Civil, International (customs port of entry)
Latitude:2834'07"N (28.568728)
Longitude:7706'44"E (77.112136)
Elevation:777 ft (237 m)
Runways:3
Longest:14534 ft (4430 m), paved

Time
Time Zone:UTC+5:30
Local Time:

Weather
METAR:VIDP 230430Z 13005KT 2800 HZ NSC 29/18 Q1016 BECMG 3000
TAF:VIDP 230300Z 2306/2412 15005KT 2000 HZ NSC
BECMG 2308/2309 32006KT 3000 HZ
BECMG 2313/2314 VRB02KT 1500 FU
BECMG 2320/2321 0800 MIFG
BECMG 2404/2405 15004KT 1500 FU
BECMG 2408/2409 32006 3000 HZ

Related Locations
Nearby:
Farthest:IPC: 12034 mi / 19367 km
Easter Island (Isla de Pascua, Rapa Nui) [Mataveri Intl], VS, CL

Find:

   beyond  
but within

Other Information
Maps:
NOTAMs:
Links:
Sources:

  
flag of India   

Sectional Chart

Flight Planning
at skyvector.com

Satellite Image

Google Maps Satellite View

 

Copyright © 2004-2014 Karl L. Swartz. All rights reserved.
The Great Circle Mapper name and logo are trademarks of the Great Circle Mapper.
All other trademarks mentioned herein belong to their respective owners.
Please see credits for attibutions and further copyright information.

  Follow gcmap on Facebook Follow gcmap on Twitter

hCard Microformat

Geo Microformat